Home   Weather   Jacksonville   Past weeks
Flag for USA

Past Weather in Jacksonville, North Carolina, USA — Yesterday and Last 2 Weeks

Now
79 °F

Clear.


Feels Like: 83 °F
Forecast: 93 / 76 °F
Wind: 6 mph from South

Location: Jacksonville - New River

Current Time: Jun 25, 2019 at 12:02:15 am

Latest Report: Jun 24, 2019 at 10:56 pm


Visibility: 10 mi

Pressure: 29.93 "Hg

Humidity: 88%

Dew Point: 75 °F

Location of JacksonvilleLocation

Past Weather in Jacksonville — Graph

°F

Jacksonville Temperature Yesterday

Maximum temperature yesterday: 90 °F (at 1:56 pm)
Minimum temperature yesterday: 67 °F (at 4:56 am)
Average temperature yesterday: 79 °F

High & Low Weather Summary for the Past Weeks

 TemperatureHumidityPressure
High95 °F (Jun 20, 3:56 pm)97% (Jun 11, 6:56 am)30.26 "Hg (Jun 11, 6:56 am)
Low55 °F (Jun 15, 4:56 am)23% (Jun 14, 4:56 pm)29.68 "Hg (Jun 20, 5:56 pm)
Average77 °F73%29.98 "Hg
* Reported Jun 9 10:56 pm — Jun 24 10:56 pm, Jacksonville. Weather by CustomWeather, © 2019

Note: Actual official high and low records may vary slightly from our data, if they occured in-between our weather recording intervals... More about our weather records

Advertising

Jacksonville Weather History for the Previous 24 Hours

Scroll right to see more
 ConditionsComfort  
Time TempWeatherWind HumidityBarometerVisibility
10:56 pm
Mon, Jun 24
79 °FClear.6 mph88%29.93 "Hg10 mi
9:56 pm79 °FClear.8 mph84%29.91 "Hg10 mi
8:56 pm80 °FClear.9 mph81%29.89 "Hg10 mi
7:56 pm82 °FSunny.9 mph74%29.88 "Hg10 mi
6:56 pm84 °FPassing clouds.8 mph67%29.89 "Hg10 mi
5:56 pm85 °FPassing clouds.14 mph63%29.89 "Hg10 mi
4:56 pm87 °FScattered clouds.13 mph59%29.90 "Hg10 mi
3:56 pm89 °FPassing clouds.12 mph57%29.92 "Hg10 mi
2:56 pm88 °FPartly sunny.12 mph59%29.93 "Hg10 mi
1:56 pm90 °FScattered clouds.5 mph48%29.93 "Hg10 mi
12:56 pm89 °FScattered clouds.3 mph48%29.95 "Hg10 mi
11:56 am87 °FPassing clouds.6 mph51%29.96 "Hg10 mi
10:56 am85 °FPassing clouds.3 mph59%29.97 "Hg10 mi
9:56 am82 °FSunny.5 mph65%29.97 "Hg10 mi
8:56 am79 °FPassing clouds.5 mph74%29.97 "Hg10 mi
7:56 am73 °FPassing clouds.No wind88%29.96 "Hg10 mi
7:03 am70 °FPassing clouds.No wind90%29.95 "Hg10 mi
5:56 am67 °FClear.No wind93%29.94 "Hg10 mi
4:56 am67 °FClear.3 mph97%29.93 "Hg8 mi
3:56 am68 °FFog.No wind93%29.94 "Hg3 mi
2:56 am69 °FClear.5 mph93%29.95 "Hg9 mi
1:56 am71 °FClear.No wind93%29.97 "Hg10 mi
12:56 am73 °FClear.No wind88%29.98 "Hg10 mi
Weather by CustomWeather, © 2019

See weather overview